Flag for U.S.A. Weather past 2 weeks in Racine, Wisconsin, U.S.A.

Now
64 °F

Passing clouds.


Feels Like: 64 °F
Forecast: 57 / 72 °F
Wind: 9 mph from Southwest

Location: Batten International Airport

Current Time: May 27, 2015 at 4:10:44 AM

Latest Report: May 27, 2015 at 2:53 AM


Visibility: 10 mi

Pressure: 29.81 "Hg

Humidity: 87%

Dew point: 60 °F

Location of RacineLocation

Historic Weather in Racine — Graph

°F

Racine temperature yesterday

Maximum temperature yesterday: 75 °F (at 3:53 PM)
Minimum temperature yesterday: 60 °F (at 1:01 PM)
Average temperature yesterday: 67 °F

Past Weeks' High & Low Weather Summary

 TemperatureHumidityPressure
High78 °F (May 25, 4:53 PM)97% (May 17, 4:48 AM)30.54 "Hg (May 17, 4:48 AM)
Low35 °F (May 13, 4:53 AM)26% (May 21, 4:53 PM)29.72 "Hg (May 26, 4:53 PM)
Average56 °F67%30.10 "Hg
* Reported May 12 2:01 AM — May 27 2:53 AM, Racine, Weather by CustomWeather, © 2015

Note: Actual official high and low records may vary slightly from our data, if they occured in-between our weather recording intervals... More about our weather records

Advertising

Racine weather history for previous 24 hours

 ConditionsComfort  
Time TempWeatherWind HumidityBarometerVisibility
2:53 AM
Wed, May 27
64 °FPassing clouds.9 mph87%29.81 "Hg10 mi
1:53 AM65 °FMostly cloudy.8 mph85%29.81 "Hg10 mi
12:53 AM66 °FMostly cloudy.10 mph81%29.81 "Hg10 mi
11:53 PM
Tue, May 26
66 °FPassing clouds.13 mph78%29.81 "Hg10 mi
10:53 PM66 °FClear.10 mph75%29.81 "Hg10 mi
9:53 PM67 °FClear.9 mph73%29.80 "Hg10 mi
8:53 PM69 °FBroken clouds.15 mph66%29.78 "Hg10 mi
7:53 PM70 °FSunny.12 mph66%29.75 "Hg10 mi
6:53 PM70 °FMore clouds than sun.14 mph76%29.73 "Hg10 mi
5:53 PM72 °FScattered clouds.13 mph76%29.72 "Hg10 mi
4:53 PM75 °FSunny.20 mph62%29.72 "Hg10 mi
3:53 PM75 °FPassing clouds.12 mph66%29.72 "Hg10 mi
2:53 PM64 °FFog.9 mph94%29.75 "Hg3 mi
2:04 PM63 °FLight rain. Fog.12 mph93%29.77 "Hg3 mi
1:53 PM62 °FHeavy rain. Fog.16 mph93%29.78 "Hg1 mi
1:01 PM60 °FRain. Fog.13 mph93%29.82 "Hg1 mi
11:53 AM61 °FLight rain. Fog.14 mph90%29.83 "Hg3 mi
10:53 AM63 °FFog.10 mph87%29.88 "Hg4 mi
9:53 AM65 °FOvercast.12 mph85%29.89 "Hg7 mi
8:53 AM63 °FFog.9 mph87%29.93 "Hg6 mi
7:53 AM65 °FPartly sunny.13 mph85%29.93 "Hg8 mi
6:53 AM65 °FFog.6 mph87%29.92 "Hg6 mi
5:53 AM67 °FClear.8 mph87%29.93 "Hg8 mi
4:53 AM65 °FClear.6 mph85%29.91 "Hg10 mi
Weather by CustomWeather, © 2015

See weather overviewHow to use our weather pages